Tracking 35331 objects as of 14-Sep-2026
HD Live streaming from Space Station
objects crossing your sky now

USA 476

Track USA 476 now!
10-day predictions


NORAD ID: 62545
Int'l Code: 2025-005P
Launch date: January 10, 2025
Source: United States (US)
Launch site: AIR FORCE WESTERN TEST RANGE (AFWTR)
Your satellite tracking list
Your tracking list is empty




NASA's NSSDC Master Catalog

Two Line Element Set (TLE):
1 62545U 25005P   26232.87762011 0.00000000  00000-0  00000-0 0    04
2 62545  70.0215 254.6360 0003000 171.0169 188.9830 14.96713464    05
Source of the keplerian elements: MCCANTS